Location: Newark
(10.3333°N, 37.7167°E)
Time: 00:15:31
(UTC+00:00)

LightSail 2 - Pass Details

Date: 02 February 2020
Orbit: 698 x 724 km, 24.0° (Epoch: 27 February)

Event Time Altitude Azimuth Distance (km) Brightness Sun altitude
Rises 16:36:24 0° 279° (W) 3,063 9.7 -15.7°
Reaches altitude 10° 16:39:00 10° 270° (W) 2,149 8.9 -16.3°
Maximum altitude 16:43:33 33° 206° (SSW) 1,159 6.6 -17.4°
Drops below altitude 10° 16:48:08 10° 142° (SE) 2,163 7.4 -18.5°
Enters shadow 16:48:36 - 140° (SE) 2,324 7.5 -18.6°
